Regional Weather Roundup
Issued by NWS Memphis, TN

Home | Current Version | Previous Version | Text Only | Print | Product List | Glossary On
Versions: 1 2 3 4 5 6 7 8 9 10 11 12 13 14 15 16 17 18 19 20 21 22 23 24 25 26 27 28 29 30 31 32 33 34 35 36 37 38 39 40 41 42 43 44 45 46 47 48 49 50
000
ASUS44 KMEG 040910
RWRMEG
MEMPHIS CWA HOURLY WEATHER ROUNDUP
NATIONAL WEATHER SERVICE MEMPHIS TN
400 AM CDT SAT JUL 04 2015

...WEST TENNESSEE...

CITY           SKY/WX    TMP DP  RH WIND       PRES   REMARKS
MEMPHIS INTL   CLOUDY    72  70  93 S5        29.91R
NWS MEMPHIS      N/A     72 N/A N/A MISG        N/A
JACKSON        CLOUDY    71  69  93 SW5       29.92R
LEXINGTON      CLOUDY    72  70  94 CALM      29.92R
DYERSBURG        N/A    N/A N/A N/A MISG        N/A
PARIS          CLOUDY    70  70 100 CALM      29.92S VSB 1/4


...EASTERN ARKANSAS...

CITY           SKY/WX    TMP DP  RH WIND       PRES   REMARKS
JONESBORO      MOCLDY    68  68 100 NE5       29.90R
WEST MEMPHIS   MOCLDY    72  72 100 CALM      29.89R
BATESVILLE     CLOUDY    66  66 100 CALM      29.91S VSB 1/2
NEWPORT        CLEAR     70  70 100 NW5       29.91S
WALNUT RIDGE   CLOUDY    72  70  94 CALM      29.91R VSB<1/4
BLYTHEVILLE    CLOUDY    73  73 100 S5        29.91R
SEARCY         MOCLDY    70  70 100 VRB3      29.94R
STUTTGART      MOCLDY    72  66  83 W6        29.93R
PINE BLUFF     LGT RAIN  73  70  90 SW12      29.94R
MONTICELLO     TSTM      70  70 100 SW7       29.98R FOG


...NORTH MISSISSIPPI...

CITY           SKY/WX    TMP DP  RH WIND       PRES   REMARKS
TUPELO         TSTM      70  68  93 SW9       29.96R FOG
OLIVE BRANCH     N/A     70 N/A N/A CALM      29.92R
TUNICA         CLOUDY    70  70 100 S6        29.93S
CLARKSDALE     CLOUDY    72  72 100 CALM      29.92S
CORINTH        DRIZZLE   72  68  88 SE7       29.93S
GREENWOOD      MOCLDY    75  72  90 SW9       29.92R
COLUMBUS       CLOUDY    72  70  94 N10       29.96R THUNDER
STARKVILLE     FAIR      68  68 100 CALM      29.95S
GOLDEN TRIANGL PTCLDY    70  66  88 S5        29.94S


...SOUTHEAST MISSOURI...

CITY           SKY/WX    TMP DP  RH WIND       PRES   REMARKS
WEST PLAINS    PTCLDY    66  62  87 N5        29.97S
POPLAR BLUFF   CLEAR     70  68  93 CALM      29.91R
CAPE GIRARDEAU CLEAR     69  68  96 N5        29.91R


...NORTHWEST ALABAMA...

CITY           SKY/WX    TMP DP  RH WIND       PRES   REMARKS
MUSCLE SHOALS  CLOUDY    70  67  90 SW5       29.97R


...MIDDLE TENNESSEE...

CITY           SKY/WX    TMP DP  RH WIND       PRES   REMARKS
NASHVILLE      PTCLDY    69  69 100 S3        29.93R
CLARKSVILLE    CLOUDY    71  69  93 W3        29.91R
COLUMBIA       CLOUDY    72  72 100 SW5       29.93R


...WESTERN KENTUCKY...

CITY           SKY/WX    TMP DP  RH WIND       PRES   REMARKS
PADUCAH        CLOUDY    71  69  93 N5        29.90S FOG
FORT CAMPBELL  CLOUDY    70  70 100 W3        29.91R


...CENTRAL ARKANSAS...

CITY           SKY/WX    TMP DP  RH WIND       PRES   REMARKS
LITTLE ROCK    MOCLDY    70  67  90 S3        29.95R


SKY/WX REPORTED AS FAIR MEANS FEW OR NO CLOUDS BELOW
12 THOUSAND FEET.




USA.gov is the U.S. government's official web portal to all federal, state and local government web resources and services.